NOAA 16 DEB, 41424

Orbit data source: Space-Track

NOAA 16 DEB, 41424 is space debris in SSO originally from a launch on Thu, 21 Sep 2000 UTC launched from the Air Force Western Test Range (AFWTR). Debris objects in space refer to the collection of defunct objects orbiting the Earth. Examples of debris include non-operational satellites, rocket bodies, and fragments generated from explosions, collisions, or faulty payload assembly.

Loading next visibility...
Identifier
41424, 2000-055LD
Orbit
SSO
Country
Flag of USUS
Related business
Manufacturer
Unknown
Mission
Spacecraft
Bus & Motor
Unknown
Mass
Unknown
Launch date (UTC)
2000-09-21 (26 years ago)
Launch vehicle
Unknown
Launch site
Air Force Western Test Range (AFWTR)
Object type
Payload
Rocket body
Debris
Shape & HBR
Unknown shape, 0.1 m
Radar Cross Section
Medium (>0.1 m² and <1 m²)

Expand to show TLE details & history
Last TLE update: 2 days ago

TLE from 2 days ago
0 NOAA 16 DEB
1 41424U 00055LD  26263.38919468  .00002878  00000-0  90255-3 0  9991
2 41424  98.9644  65.3615 0021831 229.8698 130.0577 14.41271320548546
Epoch: 2026-09-20T09:20Z
TLE epoch observation values (Epoch: 2026-09-20T09:20:26.420Z)
Latitude
-0.00002°
Longitude
-74.03266°
Altitude
767.279 km
Speed
7.465 km/s
True Right ascension
04h 21m 26s
True Declination
0° 00' 00"
Sunlit
Object was in daylight at epoch
Visualization orbit readout
Latitude
Unknown
Longitude
Unknown
Altitude
Unknown
Speed
Unknown
Apparent Right ascension
Unknown
Apparent Declination
Unknown
Sunlit
N/A
Visualization observer readout
Local Sidereal Time
03:22:27
Azimuth
Unknown
Elevation
Unknown
Doppler factor
Unknown
Orbital elements
Apogee altitude
767.008 km
Perigee altitude
735.879 km
Semi-major axis
7,129.581 km
Eccentricity
0.00218
Inclination
98.9644°
RAAN
65.3615°
Arg. of periapsis
229.8698°
True anomaly
130.24884°
Mean anomaly
130.0577°
Eccentric anomaly
130.1533°
Mean motion
3.60535 °/min
Orbital period
99.85 mins
BSTAR
0.00090255
Loading maneuver chart data...
Computing Atmospheric mass density...
Loading historical data...
Loading historical data...
Loading historical data...
Loading historical data...
Loading historical data...
Loading historical data...
Loading historical data...

Documentation

Showing up to 5 results
|